Simultaneous Nadir Overpasses (SNOs) Predictions

Prediction of SNOs between LANDSAT-8 and METOP-B Satellite Orbit:

Table of predicted SNOs for the next 14.0 days since TLE Epoch: 11/2/2019
Index Date (LANDSAT-8) Time (LANDSAT-8) Lat,Lon (LANDSAT-8) SZA (LANDSAT-8 ) Date (METOP-B) Time (METOP-B) Lat,Lon (METOP-B) SZA (METOP-B ) Distance(km) Time Diff (sec)
1 11/02/2019 08:45:59 81.10, 88.05 98.15 11/02/2019 08:45:55 81.09, 87.93 98.13 2.13 4
2 11/02/2019 09:35:25 -81.11,-104.03 81.80 11/02/2019 09:36:34 -81.12,-103.94 81.76 1.73 69
3 11/05/2019 03:30:48 -81.09, -13.27 81.02 11/05/2019 03:29:39 -81.09, -13.18 81.04 1.63 69
4 11/05/2019 04:20:14 81.09, 154.45 99.01 11/05/2019 04:20:19 81.09, 154.33 99.00 2.08 5
5 11/07/2019 23:05:02 -81.08, 53.12 80.19 11/07/2019 23:04:02 -81.09, 53.21 80.20 1.66 60
6 11/07/2019 23:54:27 81.11,-138.82 99.89 11/07/2019 23:54:41 81.11,-138.91 99.88 1.63 14
7 11/10/2019 18:39:17 -81.08, 119.47 79.41 11/10/2019 18:38:26 -81.09, 119.59 79.41 2.12 51
8 11/10/2019 19:28:42 81.11, -72.49 100.67 11/10/2019 19:29:05 81.10, -72.54 100.67 0.77 23
9 11/13/2019 14:13:31 -81.09,-173.85 78.62 11/13/2019 14:12:49 -81.10,-173.68 78.61 2.87 42




NCC Satellite Simultaneous Nadir Overpasses (SNOs) Prediction Service
